EW0401 Weather Reports


time (UTC)temp
F
wind
direction
speed
knots
gust
knots
rain 1hr
in
rain 24hr
in
rain mn
in
humidity
%
barometer
mb
20260506044605 77 0 0.0 1.7 0.00 0.00 0.00 87 1010.7
20260506043053 77 105 0.0 3.5 0.00 0.00 0.00 87 1010.6
20260506041605 77 0 0.0 5.2 0.00 0.00 0.00 87 1010.4
20260506040100 77 0 0.0 4.3 0.00 0.00 0.00 87 1010.3
20260506034558 77 0 0.0 3.5 0.00 0.00 0.00 87 1010.3
20260506033056 77 0 0.0 1.7 0.00 0.00 0.00 88 1010.2
20260506031556 77 0 0.0 1.7 0.00 0.00 0.00 87 1010.0
20260506030054 77 0 0.0 3.5 0.00 0.00 0.00 88 1009.9
20260506024608 77 238 0.0 3.5 0.00 0.00 0.00 88 1009.5
20260506023057 77 0 0.0 2.6 0.00 0.00 0.00 87 1009.3
20260506021553 77 0 0.0 1.7 0.00 0.00 0.00 87 1009.1
20260506020117 77 0 0.0 3.5 0.00 0.00 0.00 87 1009.0
20260506014554 77 0 0.9 6.1 0.00 0.00 0.00 87 1008.8
20260506013051 77 234 0.0 1.7 0.00 0.00 0.00 87 1008.6
20260506011552 77 244 0.0 2.6 0.00 0.00 0.00 86 1008.6
20260506010053 77 186 0.0 4.3 0.00 0.00 0.00 86 1008.6
20260506004550 78 0 0.0 3.5 0.00 0.00 0.00 86 1008.3
20260506003053 78 213 0.0 7.0 0.00 0.00 0.00 86 1008.2
20260506001602 78 188 0.0 3.5 0.00 0.00 0.00 85 1008.2
20260506000113 79 282 0.0 2.6 0.00 0.00 0.00 85 1008.0
20260505234552 79 0 0.9 6.1 0.00 0.00 0.00 85 1008.2
20260505233053 79 226 0.0 4.3 0.00 0.00 0.00 84 1008.3
20260505231556 79 290 0.9 5.2 0.00 0.00 0.00 84 1008.3
20260505230052 80 0 0.0 6.1 0.00 0.00 0.00 84 1008.3
20260505224552 80 0 1.7 9.6 0.00 0.00 0.00 84 1008.2
20260505223053 80 0 0.0 7.0 0.00 0.00 0.00 83 1008.3
20260505221557 80 184 0.9 4.3 0.00 0.00 0.00 83 1008.3
20260505220106 80 252 1.7 7.0 0.00 0.00 0.00 83 1008.4
20260505214601 80 184 0.9 12.2 0.00 0.00 0.00 83 1008.5
20260505213050 81 231 0.9 7.8 0.00 0.00 0.00 82 1008.6
20260505211626 81 0 0.9 8.7 0.00 0.00 0.00 82 1008.8
20260505210050 81 237 0.9 6.1 0.00 0.00 0.00 82 1009.0
20260505204602 81 250 0.9 5.2 0.00 0.00 0.00 82 1009.1
20260505203056 82 248 1.7 7.0 0.00 0.00 0.00 81 1009.2
20260505201552 82 209 1.7 6.1 0.00 0.00 0.00 81 1009.5
20260505200054 82 244 0.9 4.3 0.00 0.00 0.00 81 1009.6
20260505194549 82 0 0.0 4.3 0.00 0.00 0.00 82 1009.8
20260505193055 81 275 0.0 5.2 0.00 0.00 0.00 83 1010.0
20260505191604 80 0 0.0 7.8 0.00 0.00 0.00 84 1010.1
20260505190049 79 239 1.7 7.8 0.00 0.00 0.00 84 1010.1
20260505184554 79 146 0.9 9.6 0.00 0.00 0.00 84 1010.1
20260505183054 79 215 1.7 7.8 0.00 0.00 0.00 84 1010.3
20260505181639 78 191 0.9 5.2 0.00 0.00 0.00 85 1010.3
20260505180104 78 0 0.0 7.0 0.00 0.00 0.00 86 1010.5
20260505174553 78 238 2.6 10.4 0.00 0.00 0.00 84 1010.7
20260505173051 78 0 0.0 8.7 0.00 0.00 0.00 84 1010.7
20260505171600 78 222 0.9 6.1 0.00 0.00 0.00 84 1010.7
20260505170054 78 0 0.9 7.0 0.00 0.00 0.00 84 1010.7
20260505164551 78 209 0.0 4.3 0.00 0.00 0.00 85 1010.7
20260505163052 78 0 0.0 7.8 0.00 0.00 0.00 84 1010.7
20260505161551 77 257 1.7 7.0 0.00 0.00 0.00 84 1010.7
20260505160105 77 207 0.9 4.3 0.00 0.00 0.00 85 1010.6
20260505153059 75 0 0.0 6.1 0.00 0.00 0.00 88 1010.7
20260505151603 75 0 0.9 7.8 0.00 0.00 0.00 87 1010.5
20260505124554 74 215 0.0 4.3 0.00 0.00 0.00 86 1010.1
20260505123059 74 232 0.9 6.1 0.00 0.00 0.00 86 1009.9
20260505121557 74 0 0.0 6.1 0.00 0.00 0.00 86 1009.7
20260505120111 74 199 0.0 2.6 0.00 0.00 0.00 86 1010.1
20260505114554 74 0 0.0 5.2 0.00 0.00 0.00 86 1009.6
20260505113053 73 232 0.9 4.3 0.00 0.00 0.00 86 1009.7
20260505111556 73 202 0.0 4.3 0.00 0.00 0.00 86 1009.7
20260505110110 73 0 0.9 6.1 0.00 0.00 0.00 86 1009.8
20260505101551 73 0 0.0 2.6 0.00 0.00 0.00 86 1009.8
20260505100053 73 0 0.0 3.5 0.00 0.00 0.00 86 1009.7
20260505094550 73 0 0.0 3.5 0.00 0.00 0.00 86 1009.8
20260505093051 73 0 0.0 3.5 0.00 0.00 0.00 85 1009.9
20260505091555 73 0 0.9 4.3 0.00 0.00 0.00 85 1009.9
20260505090051 73 240 0.9 4.3 0.00 0.00 0.00 85 1010.1
20260505084602 73 0 0.9 3.5 0.00 0.00 0.00 85 1009.9
20260505083105 73 244 0.9 5.2 0.00 0.00 0.00 85 1010.0
20260505081554 73 0 0.9 6.1 0.00 0.00 0.00 85 1010.1
20260505080100 73 0 1.7 7.0 0.00 0.00 0.00 85 1010.2
20260505074554 73 264 0.9 5.2 0.00 0.00 0.00 85 1010.4
20260505073101 73 240 0.0 4.3 0.00 0.00 0.00 85 1010.3
20260505071555 73 246 0.9 6.1 0.00 0.00 0.00 85 1010.4
20260505070100 72 208 0.9 7.8 0.00 0.00 0.00 84 1010.7
20260505064636 72 0 0.9 7.8 0.00 0.00 0.00 84 1010.8
20260505063053 72 243 0.0 4.3 0.00 0.00 0.00 84 1011.1
20260505061555 72 0 0.9 4.3 0.00 0.00 0.00 84 1011.3
20260505060058 72 236 0.0 6.1 0.00 0.00 0.00 84 1011.3
20260505054558 72 252 0.9 4.3 0.00 0.00 0.00 84 1011.4
20260505053057 72 0 0.0 3.5 0.00 0.00 0.00 84 1011.5
20260505051555 72 0 0.0 6.1 0.00 0.00 0.00 84 1011.5
20260505050110 72 0 0.0 4.3 0.00 0.00 0.00 83 1011.6